Regional Weather Roundup
Issued by NWS

Home | Current Version | Previous Version | Graphics & Text | Print | Product List | Glossary On
Versions: 1 2 3 4 5 6 7 8 9 10 11 12 13 14 15 16 17 18 19 20 21 22 23 24 25 26 27 28 29 30 31 32 33 34 35 36 37 38 39 40 41 42 43 44 45 46 47 48 49 50
000
ASUS43 KLMK 200610
RWRKY
KENTUCKY REGIONAL WEATHER ROUNDUP
NATIONAL WEATHER SERVICE LOUISVILLE KY
100 AM EST MON FEB 20 2017

NOTE "FAIR" INDICATES FEW OR NO CLOUDS BELOW 12,000 FEET
WITH NO SIGNIFICANT WEATHER AND/OR OBSTRUCTIONS TO VISIBILITY.

KYZ001>023-026-027-061>063-070>075-200700-
WESTERN AND SOUTH CENTRAL KENTUCKY

CITY           SKY/WX    TMP DP  RH WIND       PRES   REMARKS
PADUCAH        FOG       49  48  97 E3        30.10R VSB 3/4
HENDERSON      CLOUDY    43  39  87 E6        30.12F VSB 1/4
OWENSBORO      FOG       45  44  97 NE5       30.14F VSB 3/4
HOPKINSVILLE   PTCLDY    52  52  99 E3        30.12F
BOWLING GREEN  FOG       43  41  93 CALM      30.15F VSB 1/4
GLASGOW        PTCLDY   N/A N/A N/A CALM      30.16S FOG
$$

KYZ024-025-028>034-038-045-046-053-200700-
NORTH CENTRAL KENTUCKY

CITY           SKY/WX    TMP DP  RH WIND       PRES   REMARKS
LOUISVILLE/SDF PTCLDY    43  41  93 CALM      30.17R FOG
LOUISVILLE/LOU MOCLDY    42  40  92 CALM      30.18S FOG
FORT KNOX      FOG       41  41 100 CALM      30.15S VSB 1/4
$$

KYZ035>037-039>044-047>052-055>060-089>105-200700-
NORTHEAST KENTUCKY

CITY           SKY/WX    TMP DP  RH WIND       PRES   REMARKS
LEXINGTON      PTCLDY    42  40  92 E3        30.18R FOG
COVINGTON      PTCLDY    40  39  97 CALM      30.17R FOG
FRANKFORT      FOG       37  35  92 N3        30.17R VSB 1/4
$$

KYZ054-064>069-076>088-106>120-200700-
SOUTHEAST KENTUCKY

CITY           SKY/WX    TMP DP  RH WIND       PRES   REMARKS
JACKSON        CLEAR     49  44  83 E3        30.18R
LONDON         CLEAR     41  38  89 CALM      30.18R
SOMERSET       CLEAR     41  41 100 CALM      30.18S FOG
MIDDLESBORO    CLEAR     38  38 100 CALM      30.21R
MONTICELLO     CLEAR     37  36  96 CALM      30.19R FOG
$$





USA.gov is the U.S. government's official web portal to all federal, state and local government web resources and services.